| time (UTC) | temp F | wind direction | speed MPH | gust MPH | rain 1hr in | rain 24hr in | rain mn in | humidity % | barometer mb |
| 20260507171546 | 62 | 313 | 2.0 | 7.0 | 0.00 | 0.17 | 0.02 | 41 | 1004.6 |
| 20260507170050 | 62 | 265 | 2.0 | 8.0 | 0.00 | 0.17 | 0.02 | 43 | 1005.0 |
| 20260507164542 | 61 | 216 | 1.0 | 6.0 | 0.00 | 0.17 | 0.02 | 47 | 1005.0 |
| 20260507163040 | 60 | 238 | 3.0 | 8.0 | 0.00 | 0.17 | 0.02 | 47 | 1005.1 |
| 20260507161539 | 60 | 302 | 3.0 | 7.0 | 0.00 | 0.17 | 0.02 | 51 | 1005.4 |
| 20260507160036 | 59 | 196 | 3.0 | 9.0 | 0.00 | 0.17 | 0.02 | 53 | 1005.4 |
| 20260507154534 | 59 | 213 | 3.0 | 8.0 | 0.00 | 0.17 | 0.02 | 58 | 1005.6 |
| 20260507153032 | 59 | 259 | 4.0 | 9.0 | 0.00 | 0.17 | 0.02 | 60 | 1005.6 |
| 20260507151531 | 59 | 320 | 3.0 | 8.0 | 0.00 | 0.17 | 0.02 | 62 | 1005.7 |
| 20260507150031 | 58 | 268 | 2.0 | 6.0 | 0.00 | 0.17 | 0.02 | 65 | 1005.9 |
| 20260507144526 | 58 | 320 | 2.0 | 8.0 | 0.00 | 0.17 | 0.02 | 65 | 1005.9 |
| 20260507143027 | 57 | 84 | 3.0 | 6.0 | 0.00 | 0.17 | 0.02 | 65 | 1006.1 |
| 20260507141523 | 57 | 197 | 2.0 | 5.0 | 0.00 | 0.17 | 0.02 | 67 | 1006.0 |
| 20260507140020 | 57 | 355 | 1.0 | 4.0 | 0.00 | 0.17 | 0.02 | 68 | 1006.1 |
| 20260507134518 | 56 | 250 | 2.0 | 6.0 | 0.00 | 0.17 | 0.02 | 68 | 1006.0 |
| 20260507133016 | 57 | 250 | 1.0 | 4.0 | 0.00 | 0.17 | 0.02 | 70 | 1006.0 |
| 20260507131519 | 56 | 9 | 1.0 | 4.0 | 0.00 | 0.17 | 0.02 | 70 | 1006.3 |
| 20260507130009 | 54 | 73 | 2.0 | 5.0 | 0.00 | 0.17 | 0.02 | 72 | 1006.4 |
| 20260507124509 | 54 | 84 | 1.0 | 5.0 | 0.00 | 0.17 | 0.02 | 77 | 1006.5 |
| 20260507123100 | 52 | 53 | 1.0 | 5.0 | 0.00 | 0.17 | 0.02 | 82 | 1006.4 |
| 20260507121607 | 51 | 89 | 1.0 | 4.0 | 0.00 | 0.17 | 0.02 | 83 | 1006.6 |
| 20260507120100 | 51 | 76 | 1.0 | 3.0 | 0.00 | 0.17 | 0.02 | 84 | 1006.5 |
| 20260507114611 | 50 | 105 | 2.0 | 3.0 | 0.00 | 0.17 | 0.02 | 85 | 1006.5 |
| 20260507113053 | 49 | 155 | 0.0 | 3.0 | 0.00 | 0.17 | 0.02 | 87 | 1006.3 |
| 20260507111551 | 49 | 153 | 0.0 | 2.0 | 0.00 | 0.17 | 0.02 | 87 | 1006.4 |
| 20260507110050 | 48 | 148 | 0.0 | 2.0 | 0.00 | 0.17 | 0.02 | 88 | 1006.0 |
| 20260507104546 | 48 | 144 | 0.0 | 1.0 | 0.00 | 0.17 | 0.02 | 88 | 1006.4 |
| 20260507103045 | 48 | 144 | 0.0 | 2.0 | 0.01 | 0.17 | 0.02 | 88 | 1005.8 |
| 20260507101543 | 48 | 155 | 0.0 | 2.0 | 0.01 | 0.17 | 0.02 | 88 | 1005.6 |
| 20260507100042 | 48 | 144 | 0.0 | 2.0 | 0.01 | 0.17 | 0.02 | 88 | 1005.8 |
| 20260507094541 | 48 | 152 | 0.0 | 3.0 | 0.01 | 0.17 | 0.02 | 88 | 1005.1 |
| 20260507093040 | 49 | 140 | 1.0 | 2.0 | 0.00 | 0.16 | 0.01 | 89 | 1005.7 |
| 20260507091535 | 49 | 153 | 1.0 | 2.0 | 0.00 | 0.16 | 0.01 | 89 | 1005.6 |
| 20260507090037 | 49 | 146 | 1.0 | 2.0 | 0.00 | 0.16 | 0.01 | 89 | 1006.1 |
| 20260507084531 | 50 | 167 | 1.0 | 3.0 | 0.00 | 0.16 | 0.01 | 89 | 1005.8 |
| 20260507083029 | 50 | 137 | 1.0 | 4.0 | 0.00 | 0.16 | 0.01 | 89 | 1005.7 |
| 20260507081540 | 50 | 139 | 1.0 | 3.0 | 0.00 | 0.16 | 0.01 | 90 | 1005.3 |
| 20260507080026 | 51 | 140 | 1.0 | 3.0 | 0.00 | 0.16 | 0.01 | 89 | 1005.4 |
| 20260507074543 | 51 | 130 | 2.0 | 4.0 | 0.01 | 0.16 | 0.01 | 89 | 1005.6 |
| 20260507073020 | 52 | 130 | 3.0 | 5.0 | 0.01 | 0.16 | 0.01 | 88 | 1005.6 |
| 20260507071518 | 52 | 155 | 1.0 | 5.0 | 0.01 | 0.16 | 0.01 | 89 | 1004.8 |
| 20260507070020 | 53 | 138 | 1.0 | 3.0 | 0.00 | 0.15 | 0.00 | 89 | 1004.8 |
| 20260507064514 | 53 | 134 | 0.0 | 2.0 | 0.00 | 0.15 | 0.00 | 89 | 1004.5 |
| 20260507063021 | 53 | 140 | 1.0 | 3.0 | 0.00 | 0.15 | 0.00 | 89 | 1004.7 |
| 20260507061511 | 54 | 134 | 1.0 | 3.0 | 0.00 | 0.15 | 0.00 | 91 | 1004.7 |
| 20260507060012 | 54 | 140 | 1.0 | 3.0 | 0.00 | 0.15 | 0.00 | 91 | 1004.7 |
| 20260507054507 | 54 | 137 | 0.0 | 3.0 | 0.00 | 0.15 | 0.00 | 90 | 1004.7 |
| 20260507053007 | 55 | 138 | 1.0 | 3.0 | 0.00 | 0.15 | 0.00 | 91 | 1005.1 |
| 20260507051505 | 55 | 131 | 1.0 | 2.0 | 0.00 | 0.15 | 0.00 | 90 | 1005.1 |
| 20260507050006 | 55 | 142 | 1.0 | 2.0 | 0.00 | 0.15 | 0.00 | 90 | 1005.1 |
| 20260507044500 | 56 | 131 | 0.0 | 3.0 | 0.00 | 0.15 | 0.00 | 90 | 1005.3 |
| 20260507043100 | 56 | 158 | 1.0 | 3.0 | 0.00 | 0.15 | 0.00 | 91 | 1004.9 |
| 20260507041601 | 57 | 119 | 2.0 | 4.0 | 0.00 | 0.15 | 0.00 | 91 | 1004.9 |
| 20260507040051 | 58 | 116 | 2.0 | 3.0 | 0.00 | 0.15 | 0.00 | 92 | 1005.0 |
| 20260507034557 | 58 | 114 | 2.0 | 4.0 | 0.01 | 0.15 | 0.15 | 92 | 1004.8 |
| 20260507033054 | 58 | 111 | 2.0 | 3.0 | 0.01 | 0.15 | 0.15 | 92 | 1004.4 |
| 20260507031602 | 59 | 104 | 2.0 | 6.0 | 0.01 | 0.15 | 0.15 | 93 | 1004.4 |
| 20260507030053 | 59 | 105 | 1.0 | 6.0 | 0.01 | 0.15 | 0.15 | 93 | 1004.0 |
| 20260507024547 | 59 | 102 | 1.0 | 3.0 | 0.00 | 0.14 | 0.14 | 93 | 1003.8 |
| 20260507023049 | 59 | 107 | 1.0 | 4.0 | 0.00 | 0.14 | 0.14 | 93 | 1003.9 |
| 20260507021545 | 59 | 96 | 2.0 | 4.0 | 0.00 | 0.14 | 0.14 | 93 | 1003.9 |
| 20260507020048 | 59 | 108 | 1.0 | 6.0 | 0.00 | 0.14 | 0.14 | 93 | 1003.8 |
| 20260507014551 | 59 | 113 | 1.0 | 4.0 | 0.00 | 0.14 | 0.14 | 93 | 1003.8 |
| 20260507013045 | 59 | 126 | 1.0 | 4.0 | 0.00 | 0.14 | 0.14 | 93 | 1003.9 |
| 20260507011544 | 59 | 139 | 2.0 | 4.0 | 0.00 | 0.14 | 0.14 | 93 | 1003.9 |
| 20260507010044 | 59 | 102 | 2.0 | 6.0 | 0.00 | 0.14 | 0.14 | 93 | 1004.0 |
| 20260507004541 | 59 | 92 | 1.0 | 4.0 | 0.00 | 0.14 | 0.14 | 93 | 1004.0 |
| 20260507003043 | 59 | 109 | 1.0 | 4.0 | 0.00 | 0.14 | 0.14 | 93 | 1004.0 |
| 20260507001543 | 59 | 86 | 1.0 | 4.0 | 0.01 | 0.14 | 0.14 | 93 | 1003.9 |
| 20260507000041 | 59 | 109 | 1.0 | 4.0 | 0.03 | 0.14 | 0.14 | 93 | 1003.8 |
| 20260506234538 | 59 | 97 | 1.0 | 4.0 | 0.05 | 0.14 | 0.14 | 93 | 1003.6 |
| 20260506233042 | 59 | 84 | 1.0 | 6.0 | 0.05 | 0.14 | 0.14 | 93 | 1003.6 |
| 20260506231536 | 60 | 107 | 2.0 | 4.0 | 0.04 | 0.13 | 0.13 | 92 | 1003.4 |
| 20260506230034 | 60 | 99 | 2.0 | 9.0 | 0.02 | 0.10 | 0.10 | 92 | 1003.6 |
| 20260506224533 | 60 | 84 | 1.0 | 4.0 | 0.01 | 0.09 | 0.09 | 92 | 1003.8 |
| 20260506223035 | 60 | 86 | 1.0 | 4.0 | 0.01 | 0.09 | 0.09 | 92 | 1003.8 |
| 20260506221531 | 60 | 132 | 2.0 | 7.0 | 0.01 | 0.09 | 0.09 | 91 | 1003.8 |
| 20260506220030 | 60 | 104 | 1.0 | 7.0 | 0.01 | 0.08 | 0.08 | 91 | 1004.0 |
| 20260506214528 | 60 | 30 | 2.0 | 8.0 | 0.01 | 0.08 | 0.08 | 91 | 1004.0 |
| 20260506213027 | 60 | 105 | 1.0 | 4.0 | 0.02 | 0.08 | 0.08 | 91 | 1004.3 |
| 20260506211525 | 60 | 107 | 1.0 | 4.0 | 0.03 | 0.08 | 0.08 | 91 | 1004.5 |
| 20260506210027 | 60 | 103 | 2.0 | 7.0 | 0.03 | 0.07 | 0.07 | 90 | 1004.5 |
| 20260506204625 | 60 | 78 | 3.0 | 9.0 | 0.03 | 0.07 | 0.07 | 90 | 1004.5 |
| 20260506203022 | 61 | 96 | 1.0 | 6.0 | 0.03 | 0.06 | 0.06 | 90 | 1004.8 |
| 20260506201522 | 61 | 80 | 2.0 | 9.0 | 0.03 | 0.05 | 0.05 | 89 | 1004.7 |
| 20260506200020 | 62 | 92 | 1.0 | 12.0 | 0.03 | 0.04 | 0.04 | 89 | 1004.7 |
| 20260506194522 | 62 | 89 | 2.0 | 6.0 | 0.04 | 0.04 | 0.04 | 88 | 1004.7 |
| 20260506193019 | 63 | 71 | 1.0 | 6.0 | 0.03 | 0.03 | 0.03 | 88 | 1004.7 |
| 20260506191519 | 64 | 74 | 0.0 | 4.0 | 0.02 | 0.02 | 0.02 | 88 | 1004.6 |
| 20260506190015 | 65 | 71 | 1.0 | 7.0 | 0.01 | 0.01 | 0.01 | 83 | 1004.8 |
| 20260506184515 | 67 | 360 | 2.0 | 9.0 | 0.00 | 0.00 | 0.00 | 78 | 1004.9 |
| 20260506183013 | 68 | 81 | 1.0 | 9.0 | 0.00 | 0.00 | 0.00 | 75 | 1004.8 |
| 20260506181513 | 71 | 209 | 5.0 | 11.0 | 0.00 | 0.00 | 0.00 | 67 | 1004.9 |
| 20260506180012 | 72 | 226 | 5.0 | 11.0 | 0.00 | 0.00 | 0.00 | 61 | 1004.8 |
| 20260506174511 | 73 | 224 | 3.0 | 5.0 | 0.00 | 0.00 | 0.00 | 60 | 1004.8 |
| 20260506173012 | 73 | 329 | 3.0 | 10.0 | 0.00 | 0.00 | 0.00 | 60 | 1005.0 |